This demonstration page uses our WeatherBlox Daily Observations layout. Learn more.

39.08367, -84.50855

Hourly Observations for July 11, 2019

Temp ( °F °C ) Dew Point ( °F °C ) Humidity (%) Winds ( mph kmh ) Pressure ( in mb ) Visibility ( mi km ) Precip ( " mm )
12:53 am 00:53 Partly Cloudy 77 25 70 21.1 79 79 E 6 9 29.88 1012 10 16.09344 0 0
1:53 am 01:53 Clear 73 22.8 71 21.7 94 94 Calm 29.88 1012 10 16.09344 0.001 0.001
2:53 am 02:53 Clear 71 21.7 70 21.1 96 96 Calm 29.85 1011 8 12.874752 0 0
3:53 am 03:53 Clear 70 21.1 69 20.6 97 97 Calm 29.85 1011 7 11.265408 0 0
4:53 am 04:53 Clear 71 21.7 70 21.1 96 96 Calm 29.85 1011 9 14.484096 0 0
5:53 am 05:53 Clear 71 21.7 70 21.1 96 96 Calm 29.85 1011 9 14.484096 0 0
6:53 am 06:53 Partly Cloudy 72 22.2 71 21.7 97 97 Calm 29.88 1012 10 16.09344 0 0
7:53 am 07:53 Mostly Sunny 74 23.3 72 22.2 94 94 Calm 29.88 1012 10 16.09344 0 0
8:53 am 08:53 Mostly Sunny 78 25.6 73 22.8 85 85 S 3 6 29.88 1012 10 16.09344 0 0
9:53 am 09:53 Sunny 82 27.8 70 21.1 67 67 WSW 5 7 29.85 1011 10 16.09344 0 0
10:53 am 10:53 Sunny 84 28.9 72 22.2 67 67 SW 5 7 29.85 1011 10 16.09344 0 0
11:53 am 11:53 Mostly Sunny 86 30 72 22.2 63 63 SW 6 9 29.85 1011 10 16.09344 0 0
12:53 pm 12:53 Mostly Sunny 87 30.6 72 22.2 61 61 VRB 5 7 29.83 1010 10 16.09344 0 0
1:25 pm 13:25 Mostly Cloudy 86 30 70 21.1 59 59 VRB 7 11 29.85 1011 10 16.09344 0 0
1:53 pm 13:53 Mostly Cloudy 88 31.1 71 21.7 57 57 W 10 17 29.83 1010 10 16.09344 0 0
2:53 pm 14:53 Mostly Cloudy 89 31.7 72 22.2 57 57 W 9 15 29.83 1010 10 16.09344 0 0
3:31 pm 15:31 Mostly Cloudy 88 31.1 70 21.1 55 55 NW 12 19 29.8 1009 10 16.09344 0 0
3:53 pm 15:53 Mostly Cloudy 89 31.7 70 21.1 53 53 W 14 22 29.8 1009 10 16.09344 0 0
4:53 pm 16:53 Partly Cloudy 89 31.7 69 20.6 52 52 NW 10 17 29.8 1009 10 16.09344 0 0
5:53 pm 17:53 Partly Cloudy 88 31.1 67 19.4 50 50 WNW 9 15 29.8 1009 10 16.09344 0 0
6:53 pm 18:53 Mostly Sunny 87 30.6 66 18.9 50 50 NNW 12 19 29.8 1009 10 16.09344 0 0
7:53 pm 19:53 Mostly Sunny 86 30 64 17.8 48 48 NW 12 19 29.83 1010 10 16.09344 0 0
8:53 pm 20:53 Mostly Sunny 82 27.8 64 17.8 55 55 NNW 5 7 29.85 1011 10 16.09344 0 0
9:53 pm 21:53 Clear 75 23.9 67 19.4 76 76 Calm 29.85 1011 10 16.09344 0 0
10:53 pm 22:53 Clear 72 22.2 67 19.4 84 84 Calm 29.85 1011 10 16.09344 0 0
11:53 pm 23:53 Clear 71 21.7 67 19.4 87 87 Calm 29.85 1011 10 16.09344 0 0

Powered by AerisWeather